Weather History for Vero Beach, FL

Change the Weather History Date:

Monday, September 15, 2014

  Actual Average Record
Temperature  
Mean Temperature 78 °F 81 °F  
Max Temperature 88 °F 88 °F 95 °F (1990)
Min Temperature 68 °F 74 °F 63 °F (1968)
Degree Days  
Heating Degree Days 0 0  
Month to date heating degree days 0 0  
Since 1 July heating degree days 0 0  
Cooling Degree Days 13 16  
Month to date cooling degree days 217 240  
Year to date cooling degree days 2584 2538  
Growing Degree Days 28 (Base 50)    
Moisture  
Dew Point 70 °F    
Average Humidity 78    
Maximum Humidity 100    
Minimum Humidity 55    
Precipitation  
Precipitation 0.03 in 0.24 in 2.97 in (1948)
Month to date precipitation 2.81 3.37  
Year to date precipitation 36.12 38.07  
Sea Level Pressure  
Sea Level Pressure 30.13 in    
Wind  
Wind Speed 5 mph (NE)    
Max Wind Speed 13 mph    
Max Gust Speed 16 mph    
Visibility 10 miles    
Events      
T = Trace of Precipitation, MM = Missing Value Source: NWS Daily Summary

Daily Weather History Graph

Daily Weather History Graph

Search for Another Location

Airport:

Trip Planner

Search our weather history database for the weather conditions in past years. The results will help you decide how hot, cold, wet, or windy it might be!

Date:

Astronomy

Sep. 15, 2014 Rise Set
Actual Time 7:06 AM EDT 7:26 PM EDT
Civil Twilight 6:43 AM EDT 7:49 PM EDT
Nautical Twilight 6:16 AM EDT 8:17 PM EDT
Astronomical Twilight 5:48 AM EDT 8:44 PM EDT
Moon No Moon Rise 1:35 PM EDT (9/15)
Length of Visible Light 13h 06m
Length of Day
12h 19m
Waning Gibbous, 54% of the Moon is Illuminated
Sep 15
Waning Gibbous
Sep 15
Last Quarter
Sep 24
New
Oct 1
First Quarter
Oct 8
Full

Hourly Weather History & Observations

Time (EDT) Temp. Heat Index Dew Point Humidity Pressure Visibility Wind Dir Wind Speed Gust Speed Precip Events Conditions
12:53 AM 70.0 °F - 64.9 °F 84% 30.15 in 10.0 mi West 3.5 mph - N/A   Clear
1:53 AM 70.0 °F - 69.1 °F 97% 30.14 in 10.0 mi Calm Calm - N/A   Clear
2:53 AM 69.1 °F - 68.0 °F 96% 30.13 in 10.0 mi Calm Calm - N/A   Clear
3:53 AM 69.1 °F - 68.0 °F 96% 30.13 in 10.0 mi WNW 3.5 mph - N/A   Clear
4:53 AM 70.0 °F - 69.1 °F 97% 30.13 in 10.0 mi West 3.5 mph - N/A   Overcast
5:53 AM 69.1 °F - 68.0 °F 96% 30.14 in 10.0 mi West 3.5 mph - N/A   Clear
6:53 AM 69.1 °F - 69.1 °F 100% 30.15 in 10.0 mi Calm Calm - N/A   Clear
7:53 AM 71.1 °F - 70.0 °F 96% 30.16 in 10.0 mi Calm Calm - N/A   Clear
8:53 AM 77.0 °F - 73.0 °F 88% 30.17 in 10.0 mi WNW 3.5 mph - N/A   Clear
9:53 AM 81.0 °F 85.8 °F 73.0 °F 77% 30.17 in 10.0 mi Calm Calm - N/A   Clear
10:53 AM 84.9 °F 90.1 °F 71.1 °F 63% 30.17 in 10.0 mi North 3.5 mph - N/A   Clear
11:53 AM 87.1 °F 92.8 °F 71.1 °F 59% 30.16 in 10.0 mi NNW 8.1 mph - N/A   Clear
12:53 PM 86.0 °F 91.5 °F 71.1 °F 61% 30.15 in 10.0 mi NNE 9.2 mph - N/A   Clear
1:53 PM 86.0 °F 89.4 °F 68.0 °F 55% 30.14 in 10.0 mi NE 11.5 mph - N/A   Scattered Clouds
2:53 PM 86.0 °F 89.4 °F 68.0 °F 55% 30.12 in 10.0 mi NE 10.4 mph - N/A   Clear
3:53 PM 86.0 °F 90.1 °F 69.1 °F 57% 30.11 in 10.0 mi East 10.4 mph - N/A   Clear
4:53 PM 84.9 °F 88.2 °F 68.0 °F 57% 30.09 in 10.0 mi ENE 8.1 mph - N/A   Clear
5:53 PM 84.0 °F 89.6 °F 72.0 °F 67% 30.09 in 10.0 mi East 8.1 mph - N/A   Clear
6:53 PM 82.0 °F 86.7 °F 72.0 °F 71% 30.08 in 10.0 mi East 6.9 mph - N/A   Clear
7:53 PM 80.1 °F 83.8 °F 72.0 °F 76% 30.09 in 10.0 mi ESE 6.9 mph - N/A   Clear
8:53 PM 80.1 °F 83.8 °F 72.0 °F 76% 30.11 in 10.0 mi ESE 4.6 mph - N/A   Clear
9:53 PM 79.0 °F - 73.0 °F 82% 30.13 in 10.0 mi SE 3.5 mph - N/A   Clear
10:53 PM 79.0 °F - 73.0 °F 82% 30.14 in 10.0 mi Calm Calm - N/A   Mostly Cloudy
11:53 PM 78.1 °F - 73.9 °F 87% 30.13 in 10.0 mi South 4.6 mph - 0.03 in   Overcast